Wind_Speed
8 9 9 8 8 8 9 8 7 7 7 8 9 9 10 10 11 11 11 11 11 11 11 10 9 8 8 7 6 6 6 5 5 6 6 6 7 7 8 8 9 9 10
8 8 8 8 8 8 8 8 7 7 7 7 8 8 9 9 10 10 11 11 11 10 10 10 9 8 8 7 6 5 5 4 4 4 5 5 6 7 7 7 8 9 9
8 8 8 8 8 8 8 8 8 7 7 7 8 8 8 9 9 10 10 10 10 10 10 10 9 9 8 7 6 5 4 3 3 3 3 4 5 6 6 7 7 8 8
8 8 8 8 8 8 8 9 8 8 8 8 8 8 9 9 9 9 9 9 10 10 10 10 10 9 9 8 7 6 5 4 2 2 2 3 4 4 5 6 6 7 8
9 9 8 8 9 9 9 9 9 9 9 9 9 9 9 9 9 9 9 10 10 10 10 10 11 10 10 9 8 7 6 5 3 2 1 0 2 3 4 5 5 6 7
10 10 9 9 9 9 10 10 11 11 11 11 11 10 10 10 10 11 11 11 11 10 11 11 11 11 11 10 10 9 8 7 6 4 3 2 1 2 3 4 5 5 6
11 11 11 10 10 11 12 11 12 12 12 12 12 12 11 11 11 12 13 12 12 12 12 12 12 13 13 12 11 10 9 9 8 7 5 4 4 4 4 4 4 5 6
11 11 11 11 12 12 12 12 13 13 13 13 13 13 13 13 13 14 14 14 14 14 14 14 14 14 14 14 13 12 12 11 10 10 9 8 7 6 6 5 5 5 6
12 12 12 12 12 13 13 13 13 13 13 13 13 14 14 15 15 16 16 15 15 15 15 15 16 16 16 15 14 13 13 13 12 12 11 11 10 9 8 8 7 7 7
13 13 13 13 13 13 14 14 14 14 14 14 14 15 15 16 16 16 17 17 17 17 16 16 16 16 17 17 16 15 15 14 14 14 14 14 13 12 12 11 10 9 9
16 15 15 15 15 15 15 15 15 15 15 16 16 17 18 18 18 18 18 19 19 18 18 17 17 17 17 18 18 17 16 16 16 16 16 16 15 15 15 14 13 12 11
19 18 17 18 18 17 17 17 17 17 18 18 19 19 21 21 21 20 20 20 20 20 19 19 19 19 19 19 19 19 19 18 17 17 17 18 18 17 17 17 16 15 14
22 20 19 19 20 20 20 20 20 20 21 22 22 23 23 23 23 23 22 22 22 22 21 21 21 21 21 21 21 21 21 20 20 19 19 19 19 19 19 19 18 18 17
24 24 23 22 22 22 23 23 24 24 24 25 25 26 25 25 26 25 25 24 24 24 24 23 22 22 22 23 23 23 23 23 22 21 21 21 21 21 21 20 20 20 20
26 26 27 25 24 25 25 25 26 26 27 28 29 29 29 29 28 27 27 26 26 26 25 24 23 23 23 24 24 24 25 25 25 24 22 23 22 22 22 22 22 22 22
28 27 26 25 25 27 27 27 28 29 29 30 30 32 32 30 29 29 29 28 28 27 26 26 26 26 25 24 25 26 26 26 26 26 24 24 24 23 23 23 24 24 23
27 27 27 27 28 28 27 28 30 30 30 30 31 33 33 32 31 31 30 29 28 27 27 27 27 26 26 25 25 26 27 27 27 27 26 25 24 24 24 24 25 25 25
26 27 27 28 28 28 28 29 30 31 31 32 33 33 34 34 32 32 32 31 30 29 29 28 28 27 26 26 27 27 27 28 28 27 27 27 26 25 25 25 25 25 25
27 27 27 28 28 29 30 31 32 33 34 35 36 36 35 35 34 34 34 32 31 31 30 29 29 28 27 27 27 27 28 28 29 29 28 27 27 27 26 26 26 26 25
25 26 27 27 29 30 31 31 33 35 35 37 38 37 37 36 35 35 35 34 32 31 31 30 29 29 28 29 28 27 27 29 29 30 30 28 26 27 27 26 27 26 25
24 26 27 29 31 32 32 34 36 37 37 37 37 37 37 37 36 36 35 34 34 33 32 31 31 30 30 30 30 28 28 29 30 30 30 29 27 27 27 27 28 27 26
25 27 29 30 32 34 34 36 37 38 38 38 38 39 39 39 39 38 37 37 36 35 35 34 32 31 31 31 30 28 27 28 29 29 30 29 28 28 28 28 29 28 26
24 27 28 30 32 34 35 36 37 37 38 40 40 40 40 40 41 40 40 40 39 38 37 35 34 33 32 32 31 30 29 29 28 28 29 30 30 29 29 30 29 28 27
25 27 29 31 33 34 36 37 38 38 39 40 41 40 41 41 41 41 41 41 41 40 38 37 36 35 34 33 33 33 32 31 30 30 29 30 30 30 29 30 29 29 28
25 27 29 31 32 34 36 37 38 38 39 39 40 40 40 40 41 41 41 41 40 40 39 38 37 37 36 35 35 34 34 33 32 32 31 30 30 30 30 30 29 30 29
25 27 28 30 31 32 34 35 36 37 37 37 38 39 39 39 40 40 40 40 39 39 39 39 38 38 38 37 37 36 36 35 34 33 32 32 31 31 32 32 32 31 31
Wind_Direction
349 352 354 355 356 356 356 358 5 9 10 10 9 8 8 9 8 7 6 6 6 6 7 7 5 6 10 11 14 24 36 47 61 71 79 86 93 101 108 114 116 116 118
347 350 347 344 346 347 347 347 349 354 357 359 358 358 358 358 358 359 358 357 357 357 359 359 355 352 354 358 0 6 20 36 50 65 78 88 94 100 106 112 119 121 122
348 347 343 337 337 338 337 336 336 338 343 345 345 346 345 345 346 348 349 348 348 346 345 346 345 340 339 342 344 347 355 10 33 51 75 88 95 100 105 110 119 124 125
343 340 337 333 330 329 327 327 327 327 328 330 330 330 330 330 333 335 337 336 337 337 334 332 332 329 326 327 327 327 331 336 349 21 63 91 100 105 108 112 118 125 127
335 331 328 325 323 320 319 319 319 319 319 318 318 318 320 322 322 324 326 326 325 325 324 321 319 317 315 314 313 311 310 310 307 311 309 114 118 122 123 123 127 132 135
322 323 318 316 314 311 311 310 309 311 310 308 308 309 311 313 315 315 315 316 315 314 313 310 308 307 304 302 301 298 296 294 290 285 273 252 200 169 159 153 146 146 147
317 316 313 308 305 305 304 303 303 304 305 304 304 304 305 305 305 308 308 307 305 303 302 301 299 297 295 292 290 287 283 280 279 275 269 259 239 218 204 191 175 165 162
313 309 306 306 302 301 300 300 299 301 304 304 303 302 301 300 299 301 303 302 301 299 297 293 293 290 288 285 283 279 274 270 267 266 260 255 246 235 224 214 204 192 182
305 302 300 300 298 298 298 300 300 301 301 300 299 299 299 299 299 299 299 297 298 297 294 289 287 286 283 279 276 273 269 264 260 258 256 252 250 241 233 225 217 210 201
296 296 295 295 294 295 296 298 299 299 299 298 298 298 299 300 299 298 298 297 297 295 291 288 286 286 280 274 271 268 266 263 259 254 253 251 249 245 239 233 227 220 213
289 287 288 290 291 292 293 296 298 299 299 299 300 299 298 298 297 296 296 295 294 291 289 285 284 284 283 274 269 265 264 262 258 253 250 249 248 247 244 238 234 229 224
286 281 281 284 286 288 289 291 294 296 297 299 299 300 300 298 298 296 294 293 292 290 288 285 280 280 278 272 268 263 260 260 257 253 250 248 247 245 244 239 236 235 232
285 280 276 278 279 283 287 288 291 292 295 297 297 298 298 297 295 294 291 289 289 289 288 283 280 274 274 271 266 263 259 258 256 253 251 249 247 244 241 239 237 237 236
284 282 278 273 276 280 282 286 289 292 293 294 294 294 296 296 292 291 288 286 284 285 285 284 283 278 273 272 266 261 259 256 255 255 252 249 247 244 241 239 238 238 236
281 282 280 277 276 278 280 284 287 287 288 290 291 291 290 290 289 288 287 282 281 281 282 279 280 280 275 271 265 261 259 255 254 254 253 250 249 245 241 238 238 236 236
283 282 281 279 282 283 281 282 283 284 283 285 288 289 290 288 288 287 286 283 281 281 278 279 276 276 277 273 266 261 257 253 254 252 252 250 247 246 244 238 235 236 235
286 286 286 282 282 282 281 283 282 282 285 285 285 287 288 289 289 289 288 285 283 282 280 280 276 274 275 272 267 263 259 254 252 250 249 247 245 245 243 238 237 235 235
288 288 287 286 286 285 284 283 284 285 286 287 290 290 290 292 292 293 291 287 286 285 284 280 277 274 272 269 267 263 259 255 251 247 245 244 244 244 241 239 237 234 234
288 288 288 289 289 288 287 286 286 287 288 289 290 291 291 291 290 289 289 287 285 285 283 279 275 273 272 270 267 263 260 255 249 246 245 245 245 242 240 239 235 233 235
289 289 288 290 289 289 288 289 289 289 289 289 288 289 290 290 288 286 285 283 282 282 281 277 275 273 271 269 269 265 260 253 247 246 244 244 243 240 237 237 232 232 232
291 292 292 291 291 291 290 289 288 287 287 287 287 287 288 287 285 283 282 280 279 279 280 276 273 273 269 267 266 263 260 254 249 247 245 242 240 238 234 233 230 229 228
295 295 295 294 293 293 292 291 289 286 285 285 286 285 285 284 282 281 279 279 277 277 277 275 273 271 268 265 263 258 257 253 249 246 244 241 239 236 231 231 228 227 224
295 295 294 293 292 292 291 290 291 288 285 284 284 283 282 282 280 279 277 276 275 274 273 271 270 268 266 262 261 258 255 252 248 245 243 239 238 235 231 228 227 226 223
297 296 295 294 292 291 291 290 290 289 287 285 284 283 282 280 279 278 276 275 273 272 270 269 267 265 264 262 259 257 254 250 246 243 240 238 236 232 228 226 226 224 223
301 299 298 296 295 293 292 291 290 289 288 287 285 284 282 280 278 277 276 274 272 271 269 267 264 263 261 259 258 256 252 249 245 240 237 234 231 229 228 226 226 223 224
308 306 304 302 299 297 295 294 292 291 290 288 288 286 285 283 280 278 275 273 271 270 268 266 264 261 259 257 256 255 252 248 244 238 236 233 230 229 228 227 226 226 224
Height
5923 5922 5921 5920 5919 5919 5918 5917 5917 5916 5915 5914 5914 5913 5912 5911 5910 5909 5908 5906 5905 5904 5903 5901 5900 5899 5898 5898 5897 5897 5896 5896 5896 5895 5895 5895 5894 5894 5894 5894 5893 5894 5894
5923 5921 5921 5920 5919 5919 5918 5918 5917 5916 5915 5914 5914 5913 5912 5911 5910 5909 5907 5906 5905 5904 5902 5901 5900 5899 5899 5898 5897 5897 5896 5896 5896 5896 5895 5895 5895 5895 5894 5894 5894 5895 5895
5922 5921 5920 5920 5919 5918 5918 5917 5916 5915 5914 5914 5913 5912 5911 5910 5909 5908 5907 5906 5904 5903 5902 5901 5900 5899 5898 5898 5897 5897 5896 5896 5896 5896 5896 5895 5895 5895 5895 5895 5895 5895 5896
5921 5920 5920 5919 5918 5918 5917 5916 5915 5915 5914 5913 5912 5911 5910 5909 5908 5907 5906 5905 5903 5902 5901 5900 5899 5898 5898 5897 5897 5896 5896 5895 5895 5895 5895 5895 5895 5895 5895 5896 5896 5896 5896
5920 5919 5918 5918 5917 5916 5916 5915 5914 5913 5912 5912 5911 5910 5909 5908 5907 5906 5904 5903 5902 5901 5900 5898 5897 5897 5896 5896 5896 5895 5895 5895 5895 5895 5895 5895 5895 5896 5896 5896 5896 5897 5897
5918 5918 5917 5916 5916 5915 5914 5914 5913 5912 5911 5910 5909 5908 5907 5906 5905 5904 5903 5902 5901 5899 5898 5897 5896 5895 5894 5894 5894 5894 5894 5893 5893 5894 5894 5895 5895 5895 5896 5896 5897 5897 5897
5916 5916 5915 5914 5914 5913 5913 5912 5911 5910 5909 5908 5907 5906 5905 5904 5903 5901 5900 5899 5898 5897 5896 5895 5894 5893 5892 5892 5892 5892 5892 5892 5892 5893 5893 5894 5894 5895 5895 5896 5896 5897 5897
5915 5914 5913 5912 5912 5911 5910 5909 5908 5907 5906 5905 5904 5903 5902 5901 5899 5898 5897 5896 5895 5894 5893 5892 5891 5890 5889 5889 5889 5890 5890 5890 5890 5891 5892 5892 5893 5893 5894 5895 5896 5896 5897
5912 5912 5911 5910 5909 5908 5907 5906 5905 5904 5903 5902 5901 5900 5898 5897 5896 5895 5894 5893 5892 5891 5890 5889 5888 5887 5886 5886 5886 5886 5887 5887 5888 5888 5889 5890 5890 5891 5892 5893 5894 5895 5896
5909 5908 5908 5907 5906 5905 5904 5903 5902 5901 5900 5898 5897 5896 5894 5893 5892 5891 5890 5889 5888 5887 5886 5885 5884 5883 5882 5882 5882 5882 5883 5884 5885 5886 5886 5886 5887 5888 5890 5891 5892 5893 5894
5906 5905 5904 5903 5902 5901 5900 5899 5898 5897 5896 5894 5893 5892 5890 5889 5888 5886 5885 5884 5883 5882 5881 5880 5879 5878 5878 5877 5877 5878 5878 5879 5881 5882 5882 5883 5884 5885 5886 5888 5889 5891 5892
5902 5901 5900 5899 5898 5896 5895 5894 5893 5893 5892 5890 5889 5887 5886 5884 5883 5882 5880 5879 5877 5876 5876 5875 5874 5874 5873 5872 5873 5873 5874 5875 5876 5877 5878 5879 5880 5881 5883 5884 5886 5888 5889
5897 5896 5895 5894 5893 5891 5890 5889 5888 5888 5887 5885 5884 5882 5881 5879 5877 5876 5874 5873 5872 5871 5870 5870 5869 5868 5868 5867 5867 5868 5868 5869 5871 5872 5873 5874 5875 5876 5878 5880 5882 5884 5886
5892 5891 5888 5887 5886 5886 5885 5884 5883 5882 5881 5880 5878 5877 5875 5873 5871 5869 5868 5866 5865 5864 5863 5863 5863 5862 5862 5862 5862 5862 5863 5864 5865 5866 5868 5869 5871 5872 5873 5875 5877 5880 5882
5886 5885 5883 5882 5881 5880 5878 5877 5877 5876 5875 5873 5872 5870 5868 5865 5863 5861 5860 5858 5858 5857 5857 5856 5856 5856 5855 5855 5856 5856 5857 5858 5859 5860 5862 5864 5865 5867 5868 5870 5872 5875 5877
5879 5879 5876 5875 5875 5873 5871 5871 5870 5869 5868 5866 5865 5862 5860 5857 5855 5854 5852 5851 5851 5850 5850 5850 5849 5849 5849 5848 5849 5850 5850 5851 5852 5854 5856 5858 5859 5861 5863 5865 5867 5869 5872
5873 5873 5872 5870 5868 5865 5863 5863 5862 5861 5859 5858 5856 5854 5852 5850 5848 5847 5845 5843 5843 5842 5843 5843 5842 5842 5842 5841 5842 5842 5843 5844 5845 5847 5850 5851 5853 5855 5857 5859 5862 5864 5867
5868 5867 5865 5863 5860 5857 5855 5854 5853 5851 5850 5849 5847 5846 5844 5842 5841 5839 5838 5836 5836 5835 5835 5835 5835 5834 5834 5834 5835 5835 5836 5837 5838 5840 5842 5844 5846 5848 5851 5854 5856 5858 5861
5863 5861 5859 5857 5855 5852 5850 5847 5845 5843 5843 5842 5840 5838 5836 5835 5833 5832 5831 5830 5829 5828 5827 5827 5827 5826 5826 5827 5827 5827 5828 5829 5831 5833 5835 5837 5840 5842 5844 5847 5850 5853 5856
5857 5855 5852 5850 5848 5846 5843 5841 5839 5837 5836 5834 5832 5830 5828 5826 5825 5824 5823 5821 5820 5820 5819 5819 5819 5818 5819 5819 5819 5820 5821 5822 5823 5826 5828 5830 5833 5835 5838 5840 5843 5847 5850
5851 5849 5846 5844 5841 5839 5836 5834 5832 5829 5827 5826 5824 5822 5820 5818 5817 5815 5814 5813 5812 5812 5811 5810 5810 5810 5810 5810 5811 5812 5813 5814 5816 5818 5821 5823 5826 5828 5831 5834 5837 5841 5844
5846 5844 5841 5838 5835 5832 5829 5826 5823 5820 5818 5816 5815 5813 5811 5809 5807 5806 5805 5803 5802 5802 5802 5802 5802 5802 5802 5802 5803 5803 5805 5807 5809 5811 5813 5815 5819 5821 5824 5828 5831 5835 5838
5842 5839 5835 5832 5828 5825 5821 5818 5814 5810 5808 5807 5805 5803 5801 5799 5798 5796 5795 5794 5793 5793 5793 5792 5792 5793 5793 5794 5794 5796 5797 5799 5801 5803 5805 5808 5811 5814 5818 5821 5825 5829 5833
5837 5833 5829 5825 5821 5817 5813 5809 5806 5802 5799 5797 5794 5792 5790 5789 5787 5785 5784 5783 5783 5783 5782 5782 5782 5783 5784 5784 5785 5787 5789 5791 5792 5795 5798 5801 5804 5807 5811 5815 5819 5823 5827
5831 5826 5822 5817 5813 5809 5804 5800 5796 5793 5789 5786 5783 5781 5779 5777 5775 5773 5772 5771 5771 5771 5771 5771 5771 5772 5773 5775 5776 5777 5779 5781 5783 5786 5790 5793 5797 5800 5804 5808 5812 5816 5821
5823 5819 5814 5809 5805 5800 5796 5791 5787 5783 5779 5776 5772 5769 5767 5765 5763 5761 5760 5759 5759 5759 5759 5759 5760 5761 5762 5764 5766 5767 5769 5772 5774 5777 5781 5785 5789 5793 5797 5801 5805 5810 5814